Flag for Madagascar Weather past 2 weeks in Antsirabe, Madagascar

64 °F

Passing clouds.

Feels Like: 64 °F
Forecast: 54 / 79 °F
Wind: 1 mph from Southeast

Location: Antananarivo / Ivato

Current Time: Nov 28, 2015 at 2:22:06 AM

Latest Report: Nov 28, 2015 at 1:30 AM

Visibility: N/A

Pressure: 30.15 "Hg (25.26 "Hg at 1507m altitude)

Humidity: 100%

Dew point: 64 °F

Location of AntsirabeLocation

Historic Weather in Antsirabe — Graph


Antsirabe temperature yesterday

Maximum temperature yesterday: 82 °F (at 11:30 AM)
Minimum temperature yesterday: 66 °F (at 12:00 AM)
Average temperature yesterday: 71 °F

Past Weeks' High & Low Weather Summary

High91 °F (Nov 16, 1:00 PM)100% (Nov 13, 1:30 AM)30.27 "Hg (Nov 13, 1:30 AM)
Low52 °F (Nov 13, 4:00 AM)23% (Nov 16, 1:00 PM)29.95 "Hg (Nov 24, 2:00 PM)
Average72 °F80%30.11 "Hg
* Reported Nov 13 1:00 AM — Nov 28 1:00 AM, Antsirabe, Weather by CustomWeather, © 2015

Note: Actual official high and low records may vary slightly from our data, if they occured in-between our weather recording intervals... More about our weather records


Antsirabe weather history for previous 24 hours

Time TempWeatherWind HumidityBarometerVisibility
1:00 AM
Sat, Nov 28
64 °FPassing clouds.No wind100%30.15 "HgN/A
12:30 AM64 °FPassing clouds.No wind100%30.15 "HgN/A
12:00 AM64 °FPassing clouds.No wind100%30.18 "HgN/A
11:30 PM
Fri, Nov 27
66 °FThunderstorms. Passing clouds.No wind100%30.18 "Hg5 mi
11:00 PM66 °FThunderstorms. Passing clouds.No wind100%30.18 "Hg5 mi
10:30 PM66 °FThunderstorms. Passing clouds.2 mph100%30.18 "Hg5 mi
10:00 PM66 °FThunderstorms. Passing clouds.1 mph100%30.21 "Hg5 mi
9:30 PM68 °FThunderstorms. Passing clouds.5 mph100%30.18 "HgN/A
9:00 PM68 °FThunderstorms. Passing clouds.6 mph100%30.18 "HgN/A
8:30 PM70 °FThunderstorms. Partly cloudy.7 mph94%30.18 "HgN/A
8:00 PM70 °FThunderstorms. Partly cloudy.3 mph94%30.15 "HgN/A
7:30 PM72 °FThunderstorms. Partly cloudy.6 mph94%30.15 "HgN/A
7:00 PM72 °FThunderstorms. Partly cloudy.3 mph100%30.12 "HgN/A
6:30 PM70 °FThunderstorms. Partly cloudy.6 mph100%30.09 "HgN/A
6:00 PM72 °FThunderstorms. Broken clouds.6 mph94%30.09 "HgN/A
5:30 PM75 °FThunderstorms. Broken clouds.No wind83%30.09 "HgN/A
5:00 PM77 °FScattered showers. Broken clouds.7 mph83%30.09 "Hg3 mi
4:30 PM77 °FThunderstorms. Partly sunny.No wind94%30.07 "Hg3 mi
4:00 PM73 °FPartly sunny.No wind94%30.07 "HgN/A
3:30 PM73 °FPartly sunny.5 mph89%30.07 "HgN/A
3:00 PM73 °FPartly sunny.10 mph89%30.07 "Hg5 mi
2:30 PM68 °FThunderstorms. Partly sunny.12 mph100%30.09 "Hg2 mi
2:00 PM75 °FThunderstorms. Partly sunny.9 mph89%30.07 "Hg4 mi
1:30 PM73 °FLight rain. Partly sunny.9 mph94%30.09 "Hg4 mi
1:00 PM77 °FLight rain. Partly sunny.6 mph89%30.09 "Hg5 mi
12:30 PM79 °FPartly sunny.2 mph79%30.12 "HgN/A
12:00 PM79 °FPartly sunny.6 mph79%30.12 "HgN/A
11:30 AM82 °FPartly sunny.5 mph70%30.12 "HgN/A
11:00 AM81 °FPartly sunny.8 mph74%30.15 "HgN/A
9:30 AM79 °FScattered clouds.7 mph79%30.15 "HgN/A
9:00 AM75 °FScattered clouds.6 mph89%30.15 "HgN/A
8:30 AM75 °FPartly sunny.6 mph89%30.15 "HgN/A
8:00 AM75 °FPartly sunny.3 mph94%30.15 "HgN/A
7:00 AM70 °FPartly sunny.2 mph100%30.12 "HgN/A
6:30 AM68 °FScattered clouds.No wind100%30.12 "HgN/A
6:00 AM68 °FPartly sunny.No wind100%30.12 "HgN/A
5:30 AM66 °FPartly sunny.No wind100%30.09 "HgN/A
5:00 AM66 °FPartly cloudy.No wind100%30.09 "HgN/A
4:30 AM66 °FPassing clouds.No wind100%30.07 "HgN/A
4:00 AM68 °FPassing clouds.No wind100%30.07 "HgN/A
3:30 AM66 °FPassing clouds.No wind100%30.07 "HgN/A
3:00 AM66 °FPassing clouds.No wind100%30.07 "HgN/A
2:30 AM66 °FPassing clouds.No wind100%30.07 "HgN/A
2:00 AM66 °FPassing clouds.1 mph100%30.07 "HgN/A
Weather by CustomWeather, © 2015

See weather overviewHow to use our weather pages